FW5945 Weather Reports


Display with metric or nautical units.
time (UTC)temp
F
wind
direction
speed
MPH
gust
MPH
rain 1hr
in
rain 24hr
in
rain mn
in
humidity
%
barometer
mb
20260505130309 63 199 4.0 6.0 0.00 0.00 0.00 79 1018.3
20260505124306 61 204 3.0 5.0 0.00 0.00 0.00 80 1018.3
20260505123304 60 160 2.0 4.0 0.00 0.00 0.00 82 1018.3
20260505122305 59 157 1.0 4.0 0.00 0.00 0.00 84 1018.3
20260505121302 57 151 1.0 4.0 0.00 0.00 0.00 87 1018.3
20260505120300 56 171 1.0 4.0 0.00 0.00 0.00 87 1018.3
20260505115258 55 159 1.0 2.0 0.00 0.00 0.00 88 1018.3
20260505114257 54 159 0.0 1.0 0.00 0.00 0.00 88 1017.9
20260505113256 53 155 0.0 1.0 0.00 0.00 0.00 88 1017.9
20260505112254 53 151 0.0 1.0 0.00 0.00 0.00 88 1017.9
20260505111253 52 153 1.0 1.0 0.00 0.00 0.00 88 1017.9
20260505110252 51 164 0.0 2.0 0.00 0.00 0.00 87 1017.9
20260505101245 52 154 0.0 2.0 0.00 0.00 0.00 86 1017.3
20260505100244 52 153 0.0 1.0 0.00 0.00 0.00 86 1017.3
20260505095242 53 155 1.0 2.0 0.00 0.00 0.00 86 1017.3
20260505094241 53 156 1.0 2.0 0.00 0.00 0.00 86 1017.3
20260505093239 53 164 0.0 1.0 0.00 0.00 0.00 85 1017.3
20260505092238 53 173 0.0 2.0 0.00 0.00 0.00 84 1017.3
20260505091237 53 186 1.0 2.0 0.00 0.00 0.00 84 1016.9
20260505090235 53 175 1.0 2.0 0.00 0.00 0.00 84 1016.6
20260505085234 54 171 0.0 2.0 0.00 0.00 0.00 84 1016.6
20260505084234 54 174 0.0 2.0 0.00 0.00 0.00 84 1016.6
20260505083232 54 183 1.0 3.0 0.00 0.00 0.00 83 1016.6
20260505082231 54 162 0.0 1.0 0.00 0.00 0.00 83 1016.6
20260505081229 54 164 0.0 1.0 0.00 0.00 0.00 83 1016.6
20260505080227 55 167 0.0 1.0 0.00 0.00 0.00 82 1016.6
20260505075226 55 180 0.0 1.0 0.00 0.00 0.00 82 1016.6
20260505074225 55 171 0.0 2.0 0.00 0.00 0.00 82 1016.6
20260505073152 55 187 1.0 2.0 0.00 0.00 0.00 81 1016.6
20260505072151 55 169 1.0 1.0 0.00 0.00 0.00 81 1016.3
20260505071150 56 173 1.0 2.0 0.00 0.00 0.00 81 1016.6
20260505070149 56 182 1.0 2.0 0.00 0.00 0.00 81 1016.6
20260505065148 56 175 1.0 3.0 0.00 0.00 0.00 80 1016.6
20260505064147 56 159 0.0 3.0 0.00 0.00 0.00 80 1016.6
20260505063145 56 153 2.0 3.0 0.00 0.00 0.00 80 1016.6
20260505062143 57 148 1.0 2.0 0.00 0.00 0.00 79 1016.6
20260505061142 57 151 1.0 3.0 0.00 0.00 0.00 78 1016.6
20260505060140 57 153 1.0 3.0 0.00 0.00 0.00 78 1016.6
20260505055139 57 146 1.0 3.0 0.00 0.00 0.00 77 1016.9
20260505054139 58 141 1.0 3.0 0.00 0.00 0.00 76 1016.9
20260505053137 58 157 1.0 3.0 0.00 0.00 0.00 75 1016.9
20260505052135 59 149 1.0 3.0 0.00 0.00 0.00 74 1016.9
20260505051134 59 138 1.0 3.0 0.00 0.00 0.00 74 1017.3
20260505050133 60 154 1.0 3.0 0.00 0.00 0.00 72 1017.3
20260505041054 61 173 2.0 5.0 0.00 0.00 0.00 69 1017.6
20260505040053 62 161 2.0 5.0 0.00 0.00 0.00 68 1017.3
20260505035051 62 171 2.0 6.0 0.00 0.00 0.00 67 1017.6
20260505034050 63 169 2.0 5.0 0.00 0.00 0.00 66 1017.6
20260505033049 63 177 2.0 5.0 0.00 0.00 0.00 65 1017.6
20260505032048 63 174 3.0 6.0 0.00 0.00 0.00 64 1017.6
20260505030945 64 169 3.0 6.0 0.00 0.00 0.00 64 1017.6
20260505025943 64 173 4.0 7.0 0.00 0.00 0.00 63 1017.9
20260505024941 64 168 4.0 7.0 0.00 0.00 0.00 62 1017.9
20260505023940 65 158 3.0 7.0 0.00 0.00 0.00 61 1017.6
20260505022938 65 174 4.0 9.0 0.00 0.00 0.00 60 1017.6
20260505021937 66 159 4.0 9.0 0.00 0.00 0.00 60 1017.6
20260505020905 66 172 5.0 9.0 0.00 0.00 0.00 59 1017.6
20260505015903 67 172 4.0 9.0 0.00 0.00 0.00 58 1017.3
20260505014901 67 172 4.0 10.0 0.00 0.00 0.00 58 1017.3
20260505013901 67 170 6.0 11.0 0.00 0.00 0.00 57 1016.9
20260505012859 68 182 5.0 11.0 0.00 0.00 0.00 57 1017.3
20260505011858 68 169 5.0 10.0 0.00 0.00 0.00 57 1016.9
20260505010752 68 173 5.0 12.0 0.00 0.00 0.00 56 1016.9
20260505005751 69 172 6.0 14.0 0.00 0.00 0.00 56 1016.9
20260505004718 69 170 5.0 11.0 0.00 0.00 0.00 56 1016.6
20260505003717 70 177 6.0 11.0 0.00 0.00 0.00 55 1016.6
20260505002645 70 185 4.0 11.0 0.00 0.00 0.00 55 1016.3
20260505001644 71 166 4.0 11.0 0.00 0.00 0.00 54 1016.3
20260505000642 72 168 5.0 12.0 0.00 0.00 0.00 52 1016.3
20260504235641 73 169 6.0 12.0 0.00 0.00 0.00 51 1016.3
20260504234639 74 167 4.0 10.0 0.00 0.00 0.00 50 1015.9
20260504233639 75 161 4.0 14.0 0.00 0.00 0.00 49 1015.9
20260504232638 75 173 5.0 15.0 0.00 0.00 0.00 46 1015.9
20260504231605 76 181 6.0 11.0 0.00 0.00 0.00 44 1015.9
20260504230603 77 150 4.0 11.0 0.00 0.00 0.00 40 1015.6
20260504225601 78 169 4.0 10.0 0.00 0.00 0.00 38 1015.6
20260504224529 79 173 6.0 11.0 0.00 0.00 0.00 36 1015.9
20260504223456 79 163 4.0 14.0 0.00 0.00 0.00 35 1015.9
20260504222454 79 197 6.0 14.0 0.00 0.00 0.00 34 1015.6
20260504221351 80 191 6.0 14.0 0.00 0.00 0.00 34 1015.6
20260504220350 80 183 5.0 11.0 0.00 0.00 0.00 33 1015.6
20260504215349 80 180 6.0 12.0 0.00 0.00 0.00 32 1015.6
20260504214348 80 174 5.0 15.0 0.00 0.00 0.00 31 1015.6
20260504213347 79 183 4.0 14.0 0.00 0.00 0.00 34 1015.6
20260504212346 79 201 8.0 15.0 0.00 0.00 0.00 33 1015.6
20260504211345 80 223 8.0 16.0 0.00 0.00 0.00 32 1015.6
20260504210345 80 211 9.0 15.0 0.00 0.00 0.00 32 1015.6
20260504205343 80 179 6.0 15.0 0.00 0.00 0.00 33 1015.6
20260504204341 80 153 7.0 14.0 0.00 0.00 0.00 35 1015.6
20260504203339 80 179 6.0 14.0 0.00 0.00 0.00 34 1015.6
20260504202338 80 162 5.0 12.0 0.00 0.00 0.00 33 1015.9
20260504201337 82 222 8.0 12.0 0.00 0.00 0.00 31 1015.9
20260504200335 81 144 3.0 14.0 0.00 0.00 0.00 33 1015.9
20260504195334 80 117 4.0 9.0 0.00 0.00 0.00 32 1015.9
20260504194333 80 166 4.0 13.0 0.00 0.00 0.00 33 1016.3
20260504193332 80 216 10.0 14.0 0.00 0.00 0.00 32 1016.6
20260504192331 80 212 4.0 12.0 0.00 0.00 0.00 30 1016.6
20260504191330 81 207 4.0 12.0 0.00 0.00 0.00 31 1016.6
20260504190330 79 177 2.0 15.0 0.00 0.00 0.00 33 1016.9
20260504185258 81 199 6.0 12.0 0.00 0.00 0.00 32 1016.9
20260504184257 80 207 7.0 12.0 0.00 0.00 0.00 33 1017.3
20260504183255 79 242 8.0 13.0 0.00 0.00 0.00 33 1017.3
20260504182253 78 235 4.0 13.0 0.00 0.00 0.00 32 1017.3
20260504181252 79 184 5.0 14.0 0.00 0.00 0.00 36 1017.6
20260504180250 78 191 8.0 24.0 0.00 0.00 0.00 35 1017.6
20260504175248 79 225 11.0 24.0 0.00 0.00 0.00 35 1017.3
20260504174248 78 203 8.0 13.0 0.00 0.00 0.00 36 1017.6
20260504173144 77 201 6.0 15.0 0.00 0.00 0.00 36 1017.6
20260504172111 77 260 6.0 15.0 0.00 0.00 0.00 37 1017.6
20260504171037 76 223 12.0 15.0 0.00 0.00 0.00 36 1017.9
20260504150919 72 245 3.0 11.0 0.00 0.00 0.00 44 1018.6
20260504140912 69 174 2.0 8.0 0.00 0.00 0.00 54 1018.6